Location: Table Mountain
(47.2500°N, 120.5778°W)
Time: 06:45:16
(UTC-07:00)

OTV 5 (USA 277) - Pass Details

Date: 16 October 2017
Orbit: 404 x 417 km, 43.0° (Epoch: 07 September)

Event Time Altitude Azimuth Distance (km) Brightness Sun altitude
Rises 19:34:00 0° 261° (W) 2,349 ? -14.6°
Reaches altitude 10° 19:36:11 10° 253° (WSW) 1,487 ? -15.0°
Maximum altitude 19:39:21 39° 183° (S) 636 ? -15.6°
Enters shadow 19:40:31 28° 137° (SE) 807 ? -15.8°
